Lakehurst, NJ

10:08 AM EDT on August 29, 2016 (GMT -0400)
Lakehurst Naes

Weather History for KNEL - February, 2013

Change the Weather History Date:

Monday, February 11, 2013

  Actual Average Record
Temperature  
Mean Temperature 42 °F -  
Max Temperature 46 °F 44 °F 58 °F (1999)
Min Temperature 30 °F 30 °F 0 °F (2014)
Degree Days  
Heating Degree Days 22    
Moisture  
Dew Point 44 °F    
Average Humidity 92    
Maximum Humidity 100    
Minimum Humidity 75    
Precipitation  
Precipitation 0.00 in - - ()
Sea Level Pressure  
Sea Level Pressure 29.93 in    
Wind  
Wind Speed 7 mph (SSW)    
Max Wind Speed 18 mph    
Max Gust Speed 26 mph    
Averages and records for this station are not official NWS values.
T = Trace of Precipitation, MM = Missing Value Source: NWS Daily Summary

Daily Weather History Graph

Daily Weather History Graph

Search for Another Location

Airport or City:

Trip Planner

Search our weather history database for the weather conditions in past years. The results will help you decide how hot, cold, wet, or windy it might be!

Date:

Astronomy

Feb. 11, 2013 Rise Set
Actual Time 6:54 AM EST 5:28 PM EST
Civil Twilight 6:27 AM EST 5:56 PM EST
Nautical Twilight 5:55 AM EST 6:28 PM EST
Astronomical Twilight 5:23 AM EST 7:00 PM EST
Moon 7:18 AM EST (2/11) 7:22 PM EST (2/11)
Length of Visible Light 11h 29m
Length of Day
10h 33m
Waxing Crescent, 3% of the Moon is Illuminated
Feb 11
Waxing Crescent
Feb 17
First Quarter
Feb 25
Full
Mar 4
Last Quarter
Mar 11
New

Hourly Weather History & Observations

Time (EST) Temp. Windchill Dew Point Humidity Pressure Visibility Wind Dir Wind Speed Gust Speed Precip Events Conditions
12:00 AM 30.0 °F - 23.0 °F 75% 30.34 in - Calm Calm - N/A   Clear
1:00 AM 30.9 °F 26.2 °F 26.1 °F 82% 30.30 in - SSE 4.6 mph - N/A   Clear
2:00 AM 33.1 °F 28.7 °F 28.0 °F 82% 30.26 in - SE 4.6 mph - N/A   Partly Cloudy
3:00 AM 32.0 °F - 28.0 °F 85% 30.25 in - Calm Calm - N/A   Overcast
4:00 AM 36.0 °F 31.1 °F 32.0 °F 86% 30.19 in - SSE 5.8 mph - N/A   Overcast
5:00 AM 35.1 °F - 32.0 °F 89% 30.18 in - Calm Calm - N/A Rain Light Rain
6:00 AM 35.6 °F 32.8 °F 35.6 °F 100% 30.13 in - SE 3.5 mph - N/A Rain Light Rain
6:06 AM 37.0 °F 34.5 °F 36.0 °F 96% 30.12 in - ESE 3.5 mph - N/A Rain Light Rain
7:00 AM 39.0 °F 32.8 °F 37.9 °F 96% 30.07 in - SE 9.2 mph - N/A Rain Light Rain
7:14 AM 39.2 °F 33.0 °F 39.2 °F 100% 30.06 in - SE 9.2 mph - N/A Rain Light Rain
8:00 AM 43.0 °F 36.4 °F 43.0 °F 100% 30.04 in - South 12.7 mph - N/A Rain Light Rain
9:00 AM 48.0 °F - 46.9 °F 96% 29.98 in - South 17.3 mph 26.5 mph N/A Rain Light Rain
10:00 AM 48.9 °F - 48.0 °F 97% 29.97 in - SW 13.8 mph - N/A Rain Light Rain
11:00 AM 48.9 °F - 48.0 °F 97% 29.95 in - SSW 9.2 mph - N/A   Overcast
12:00 PM 50.0 °F - 48.9 °F 96% 29.90 in - SW 5.8 mph - N/A   Overcast
12:36 PM 50.0 °F - 50.0 °F 100% 29.87 in - SW 6.9 mph - N/A   Overcast
1:00 PM 51.1 °F - 50.0 °F 96% 29.84 in - WSW 6.9 mph - N/A   Overcast
1:18 PM 51.8 °F - 50.0 °F 94% 29.82 in - SW 10.4 mph - N/A   Overcast
2:00 PM 53.1 °F - 51.1 °F 93% 29.81 in - SW 10.4 mph 20.7 mph N/A   Overcast
3:00 PM 54.0 °F - 52.0 °F 93% 29.78 in - SW 18.4 mph 21.9 mph N/A   Overcast
4:00 PM 54.0 °F - 52.0 °F 93% 29.74 in - SW 15.0 mph - N/A   Overcast
5:00 PM 54.0 °F - 52.0 °F 93% 29.72 in - SW 15.0 mph 23.0 mph N/A   Overcast
5:58 PM 55.4 °F - 51.8 °F 88% 29.69 in - WSW 15.0 mph 23.0 mph N/A   Overcast
6:00 PM 55.0 °F - 52.0 °F 89% 29.69 in - SW 13.8 mph 23.0 mph N/A   Overcast
7:00 PM 55.0 °F - 52.0 °F 89% 29.67 in - WSW 12.7 mph 19.6 mph N/A   Overcast
8:00 PM 55.0 °F - 52.0 °F 89% 29.65 in - WSW 13.8 mph 23.0 mph N/A   Overcast
9:00 PM 54.0 °F - 52.0 °F 93% 29.65 in - WSW 11.5 mph - N/A   Overcast
10:00 PM 53.1 °F - 51.1 °F 93% 29.67 in - West 11.5 mph - N/A   Overcast
10:56 PM 51.1 °F - 48.0 °F 89% 29.70 in - WNW 17.3 mph 25.3 mph N/A   Mostly Cloudy
11:21 PM 48.2 °F - 44.6 °F 87% 29.72 in - WNW 13.8 mph 20.7 mph N/A   Scattered Clouds